• In Kazakhstan
  • List of Countries
  • For 7 days
  • Water Temperature
  • Satellite Maps
  • Weather Map
  • News
  • Weather Widgets
  • user-avatar
    Login

    Hourly Weather Rochdale

    Today, 19 November, Monday

    Time Temperature Precipitation Wind Pressure Humidity
    00:00 +4°C° 0 mm 4 mps 756 mmHg 87%
    01:00 +4°C° 0 mm 4 mps 756 mmHg 87%
    02:00 +4°C° 0 mm 4 mps 755 mmHg 88%
    03:00 +5°C° 0 mm 5 mps 755 mmHg 89%
    04:00 +5°C° 0 mm 5 mps 755 mmHg 88%
    05:00 +5°C° 0 mm 5 mps 754 mmHg 86%
    06:00 +5°C° 0 mm 4 mps 754 mmHg 85%
    07:00 +5°C° 0 mm 4 mps 754 mmHg 83%
    08:00 +5°C° 0 mm 5 mps 754 mmHg 81%
    09:00 +5°C° 0 mm 5 mps 754 mmHg 79%
    10:00 +6°C° 0 mm 5 mps 754 mmHg 76%
    11:00 +5°C° 0 mm 6 mps 754 mmHg 74%
    12:00 +5°C° 0 mm 6 mps 753 mmHg 71%
    13:00 +5°C° 0 mm 6 mps 753 mmHg 71%
    14:00 +5°C° 0 mm 6 mps 753 mmHg 72%
    15:00 +4°C° 0 mm 6 mps 752 mmHg 72%
    16:00 +4°C° 0 mm 6 mps 752 mmHg 73%
    17:00 +4°C° 0 mm 6 mps 752 mmHg 74%
    18:00 +4°C° 0 mm 6 mps 751 mmHg 75%
    19:00 +4°C° 0 mm 6 mps 751 mmHg 75%
    20:00 +3°C° 0 mm 6 mps 751 mmHg 75%
    21:00 +3°C° 0 mm 6 mps 751 mmHg 76%
    22:00 +3°C° 0 mm 6 mps 751 mmHg 76%
    23:00 +3°C° 0 mm 6 mps 750 mmHg 77%

    Tomorrow, 20 November, Tuesday

    Time Temperature Precipitation Wind Pressure Humidity
    00:00 +3°C° 0 mm 6 mps 750 mmHg 78%
    01:00 +3°C° 0.1 mm 6 mps 750 mmHg 77%
    02:00 +3°C° 0.1 mm 6 mps 749 mmHg 76%
    03:00 +3°C° 0.1 mm 6 mps 749 mmHg 76%
    04:00 +3°C° 0.1 mm 6 mps 749 mmHg 76%
    05:00 +3°C° 0.1 mm 5 mps 748 mmHg 76%
    06:00 +3°C° 0.1 mm 5 mps 748 mmHg 76%
    07:00 +3°C° 0.1 mm 5 mps 748 mmHg 76%
    08:00 +3°C° 0.1 mm 6 mps 747 mmHg 75%
    09:00 +3°C° 0.1 mm 6 mps 747 mmHg 74%
    10:00 +4°C° 0.1 mm 7 mps 747 mmHg 72%
    11:00 +4°C° 0.1 mm 7 mps 746 mmHg 70%
    12:00 +5°C° 0.1 mm 8 mps 745 mmHg 68%
    13:00 +4°C° 0.3 mm 8 mps 745 mmHg 70%
    14:00 +4°C° 0.3 mm 8 mps 744 mmHg 73%
    15:00 +4°C° 0.3 mm 7 mps 744 mmHg 76%
    16:00 +4°C° 0.4 mm 7 mps 744 mmHg 77%
    17:00 +3°C° 0.4 mm 7 mps 744 mmHg 79%
    18:00 +3°C° 0.4 mm 6 mps 743 mmHg 80%
    19:00 +3°C° 0.1 mm 6 mps 743 mmHg 81%
    20:00 +3°C° 0.1 mm 5 mps 743 mmHg 81%
    21:00 +3°C° 0.1 mm 5 mps 743 mmHg 82%
    22:00 +3°C° 0.4 mm 5 mps 742 mmHg 83%
    23:00 +3°C° 0.4 mm 5 mps 742 mmHg 84%

    Day after tomorrow, 21 November, Wednesday

    Time Temperature Precipitation Wind Pressure Humidity
    00:00 +3°C° 0.4 mm 5 mps 741 mmHg 86%
    01:00 +3°C° 0.4 mm 5 mps 741 mmHg 86%
    02:00 +3°C° 0.4 mm 5 mps 740 mmHg 86%
    03:00 +3°C° 0.4 mm 5 mps 740 mmHg 86%
    04:00 +2°C° 0.2 mm 5 mps 740 mmHg 85%
    05:00 +2°C° 0.2 mm 5 mps 740 mmHg 85%
    06:00 +2°C° 0.2 mm 5 mps 739 mmHg 85%
    07:00 +2°C° 0.1 mm 5 mps 740 mmHg 85%
    08:00 +2°C° 0.1 mm 5 mps 741 mmHg 85%
    09:00 +2°C° 0.1 mm 5 mps 741 mmHg 85%
    10:00 +2°C° 0.1 mm 5 mps 742 mmHg 83%
    11:00 +3°C° 0.1 mm 5 mps 742 mmHg 81%
    12:00 +3°C° 0.1 mm 5 mps 743 mmHg 78%
    13:00 +3°C° 0.1 mm 5 mps 744 mmHg 78%
    14:00 +3°C° 0.1 mm 5 mps 744 mmHg 77%
    15:00 +3°C° 0.1 mm 5 mps 745 mmHg 76%
    16:00 +3°C° 0 mm 5 mps 745 mmHg 78%
    17:00 +3°C° 0 mm 5 mps 746 mmHg 79%
    18:00 +3°C° 0 mm 5 mps 747 mmHg 80%
    19:00 +2°C° 0 mm 5 mps 748 mmHg 81%
    20:00 +1°C° 0 mm 4 mps 748 mmHg 83%
    21:00 +1°C° 0 mm 4 mps 749 mmHg 84%
    22:00 0°C° 0 mm 4 mps 749 mmHg 85%
    23:00 +1°C° 0 mm 3 mps 749 mmHg 86%

    22 November, Thursday

    Time Temperature Precipitation Wind Pressure Humidity
    00:00 +1°C° 0 mm 3 mps 750 mmHg 86%
    01:00 0°C° 0 mm 3 mps 750 mmHg 87%
    02:00 0°C° 0 mm 3 mps 750 mmHg 87%
    03:00 +1°C° 0 mm 2 mps 750 mmHg 87%
    04:00 +1°C° 0 mm 2 mps 750 mmHg 87%
    05:00 +1°C° 0 mm 2 mps 750 mmHg 87%
    06:00 +1°C° 0 mm 2 mps 750 mmHg 87%
    07:00 +2°C° 0 mm 2 mps 750 mmHg 87%
    08:00 +2°C° 0 mm 2 mps 750 mmHg 88%
    09:00 +3°C° 0 mm 2 mps 750 mmHg 89%
    10:00 +4°C° 0.1 mm 2 mps 750 mmHg 89%
    11:00 +4°C° 0.1 mm 2 mps 750 mmHg 89%
    12:00 +4°C° 0.1 mm 3 mps 750 mmHg 89%
    13:00 +4°C° 0 mm 3 mps 750 mmHg 89%
    14:00 +4°C° 0 mm 3 mps 749 mmHg 89%
    15:00 +5°C° 0 mm 3 mps 749 mmHg 89%
    16:00 +4°C° 0 mm 3 mps 749 mmHg 91%
    17:00 +5°C° 0 mm 2 mps 749 mmHg 92%
    18:00 +5°C° 0 mm 2 mps 749 mmHg 93%
    19:00 +4°C° 0 mm 2 mps 749 mmHg 93%
    20:00 +4°C° 0 mm 2 mps 749 mmHg 93%
    21:00 +4°C° 0 mm 2 mps 749 mmHg 93%
    22:00 +4°C° 0 mm 2 mps 749 mmHg 94%
    23:00 +4°C° 0 mm 2 mps 749 mmHg 94%

    23 November, Friday

    Time Temperature Precipitation Wind Pressure Humidity
    00:00 +4°C° 0 mm 2 mps 749 mmHg 94%
    01:00 +4°C° 0 mm 2 mps 749 mmHg 94%
    02:00 +3°C° 0 mm 2 mps 748 mmHg 94%
    03:00 +4°C° 0 mm 1 mps 748 mmHg 94%
    04:00 +3°C° 0 mm 2 mps 748 mmHg 94%
    05:00 +3°C° 0 mm 2 mps 748 mmHg 93%
    06:00 +2°C° 0 mm 2 mps 748 mmHg 93%
    07:00 +3°C° 0 mm 2 mps 748 mmHg 93%
    08:00 +3°C° 0 mm 2 mps 748 mmHg 92%
    09:00 +3°C° 0 mm 2 mps 748 mmHg 92%
    10:00 +4°C° 0 mm 2 mps 748 mmHg 89%
    11:00 +4°C° 0 mm 3 mps 747 mmHg 87%
    12:00 +4°C° 0 mm 3 mps 747 mmHg 84%
    13:00 +4°C° 0 mm 3 mps 747 mmHg 86%
    14:00 +4°C° 0 mm 3 mps 747 mmHg 87%
    15:00 +4°C° 0 mm 3 mps 747 mmHg 89%
    16:00 +4°C° 0 mm 3 mps 747 mmHg 90%
    17:00 +4°C° 0 mm 3 mps 747 mmHg 92%
    18:00 +4°C° 0 mm 3 mps 747 mmHg 93%
    19:00 +4°C° 0 mm 3 mps 747 mmHg 93%
    20:00 +4°C° 0 mm 3 mps 747 mmHg 94%
    21:00 +4°C° 0 mm 3 mps 747 mmHg 94%
    22:00 +4°C° 0 mm 3 mps 747 mmHg 95%
    23:00 +4°C° 0 mm 3 mps 747 mmHg 95%

    24 November, Saturday

    Time Temperature Precipitation Wind Pressure Humidity
    00:00 +4°C° 0 mm 3 mps 747 mmHg 96%
    01:00 +5°C° 0 mm 2 mps 747 mmHg 96%
    02:00 +5°C° 0 mm 2 mps 747 mmHg 96%
    03:00 +5°C° 0 mm 2 mps 746 mmHg 96%
    04:00 +5°C° 0 mm 2 mps 747 mmHg 96%
    05:00 +5°C° 0 mm 2 mps 747 mmHg 95%
    06:00 +4°C° 0 mm 3 mps 747 mmHg 95%
    07:00 +4°C° 0 mm 3 mps 747 mmHg 94%
    08:00 +4°C° 0 mm 3 mps 747 mmHg 93%
    09:00 +4°C° 0 mm 3 mps 747 mmHg 92%
    10:00 +5°C° 0 mm 3 mps 747 mmHg 89%
    11:00 +7°C° 0 mm 3 mps 747 mmHg 85%
    12:00 +7°C° 0 mm 3 mps 748 mmHg 82%
    13:00 +7°C° 0 mm 3 mps 747 mmHg 83%
    14:00 +7°C° 0 mm 3 mps 747 mmHg 84%
    15:00 +7°C° 0 mm 2 mps 747 mmHg 85%
    16:00 +7°C° 0 mm 2 mps 747 mmHg 87%
    17:00 +6°C° 0 mm 2 mps 747 mmHg 89%
    18:00 +4°C° 0 mm 3 mps 747 mmHg 91%
    19:00 +5°C° 0 mm 2 mps 747 mmHg 92%
    20:00 +5°C° 0 mm 2 mps 748 mmHg 92%
    21:00 +5°C° 0 mm 2 mps 748 mmHg 93%
    22:00 +5°C° 0 mm 2 mps 748 mmHg 93%
    23:00 +4°C° 0 mm 2 mps 748 mmHg 94%
    Show more